Time,TemperatureF,DewpointF,PressureIn,WindDirection,WindDirectionDegrees,WindSpeedMPH,WindSpeedGustMPH,Humidity,HourlyPrecipIn,Conditions,Clouds,dailyrainin,SoftwareType,DateUTC
2013-05-26 00:01:00,55.1,42.3,30.32,West,267,4.0,4.0,62,0.00,,,0.00,Wunderground v.1.15,2013-05-26 04:01:00,
2013-05-26 00:02:00,55.0,42.2,30.31,NNW,333,4.0,5.0,62,0.00,,,0.00,Wunderground v.1.15,2013-05-26 04:02:00,
2013-05-26 00:04:00,55.0,42.2,30.31,NW,310,4.0,5.0,62,0.00,,,0.00,Wunderground v.1.15,2013-05-26 04:04:00,
2013-05-26 00:06:00,55.0,41.8,30.32,WNW,300,4.0,5.0,61,0.00,,,0.00,Wunderground v.1.15,2013-05-26 04:06:00,
2013-05-26 00:12:00,55.0,41.8,30.32,NW,307,5.0,6.0,61,0.00,,,0.00,Wunderground v.1.15,2013-05-26 04:12:00,
2013-05-26 00:13:00,55.0,41.8,30.32,West,276,5.0,6.0,61,0.00,,,0.00,Wunderground v.1.15,2013-05-26 04:13:00,
2013-05-26 00:19:00,54.9,41.7,30.32,WNW,288,4.0,6.0,61,0.00,,,0.00,Wunderground v.1.15,2013-05-26 04:19:00,
2013-05-26 00:25:00,55.0,41.8,30.32,ENE,59,4.0,8.0,61,0.00,,,0.00,Wunderground v.1.15,2013-05-26 04:25:00,
2013-05-26 00:31:00,55.1,41.0,30.32,NW,307,5.0,6.0,59,0.00,,,0.00,Wunderground v.1.15,2013-05-26 04:31:00,
2013-05-26 00:37:00,55.1,40.6,30.32,SW,222,4.0,6.0,58,0.00,,,0.00,Wunderground v.1.15,2013-05-26 04:37:00,
2013-05-26 00:43:00,55.1,40.6,30.32,WSW,245,4.0,5.0,58,0.00,,,0.00,Wunderground v.1.15,2013-05-26 04:43:00,
2013-05-26 00:49:00,55.1,41.0,30.31,WNW,287,3.0,6.0,59,0.00,,,0.00,Wunderground v.1.15,2013-05-26 04:49:00,
2013-05-26 00:55:00,55.2,41.1,30.31,NNW,327,4.0,7.0,59,0.00,,,0.00,Wunderground v.1.15,2013-05-26 04:55:00,
2013-05-26 01:01:00,55.1,41.5,30.31,WSW,250,3.0,5.0,60,0.00,,,0.00,Wunderground v.1.15,2013-05-26 05:01:00,
2013-05-26 01:07:00,55.1,41.9,30.31,SW,226,3.0,5.0,61,0.00,,,0.00,Wunderground v.1.15,2013-05-26 05:07:00,
2013-05-26 01:13:00,54.9,41.7,30.31,West,281,3.0,5.0,61,0.00,,,0.00,Wunderground v.1.15,2013-05-26 05:13:00,
2013-05-26 01:19:00,54.7,41.5,30.31,SW,222,2.0,5.0,61,0.00,,,0.00,Wunderground v.1.15,2013-05-26 05:19:00,
2013-05-26 01:25:00,54.6,42.3,30.31,WSW,257,2.0,5.0,63,0.00,,,0.00,Wunderground v.1.15,2013-05-26 05:25:00,
2013-05-26 01:31:00,54.4,41.6,30.30,SW,236,2.0,5.0,62,0.00,,,0.00,Wunderground v.1.15,2013-05-26 05:31:00,
2013-05-26 01:36:00,54.2,42.7,30.30,SW,226,2.0,5.0,65,0.00,,,0.00,Wunderground v.1.15,2013-05-26 05:36:00,
2013-05-26 01:42:00,54.0,42.5,30.30,NW,315,1.0,5.0,65,0.00,,,0.00,Wunderground v.1.15,2013-05-26 05:42:00,
2013-05-26 01:48:00,53.9,42.4,30.30,WNW,299,2.0,5.0,65,0.00,,,0.00,Wunderground v.1.15,2013-05-26 05:48:00,
2013-05-26 01:54:00,53.8,42.7,30.30,SSE,155,2.0,5.0,66,0.00,,,0.00,Wunderground v.1.15,2013-05-26 05:54:00,
2013-05-26 02:01:00,53.7,43.4,30.30,NNW,335,2.0,5.0,68,0.00,,,0.00,Wunderground v.1.15,2013-05-26 06:01:00,
2013-05-26 02:07:00,53.6,43.7,30.30,SW,217,2.0,5.0,69,0.00,,,0.00,Wunderground v.1.15,2013-05-26 06:07:00,
2013-05-26 02:13:00,53.5,43.2,30.30,SSW,205,2.0,5.0,68,0.00,,,0.00,Wunderground v.1.15,2013-05-26 06:13:00,
2013-05-26 02:19:00,53.3,43.8,30.30,SW,217,2.0,5.0,70,0.00,,,0.00,Wunderground v.1.15,2013-05-26 06:19:00,
2013-05-26 02:24:00,53.1,43.2,30.30,West,259,2.0,5.0,69,0.00,,,0.00,Wunderground v.1.15,2013-05-26 06:24:00,
2013-05-26 02:30:00,53.0,43.1,30.30,West,281,2.0,5.0,69,0.00,,,0.00,Wunderground v.1.15,2013-05-26 06:30:00,
2013-05-26 02:36:00,52.8,43.3,30.30,West,266,2.0,5.0,70,0.00,,,0.00,Wunderground v.1.15,2013-05-26 06:36:00,
2013-05-26 02:42:00,52.6,43.5,30.30,WNW,285,2.0,5.0,71,0.00,,,0.00,Wunderground v.1.15,2013-05-26 06:42:00,
2013-05-26 02:48:00,52.6,43.8,30.30,NW,312,2.0,5.0,72,0.00,,,0.00,Wunderground v.1.15,2013-05-26 06:48:00,
2013-05-26 02:54:00,52.4,44.0,30.29,NW,322,2.0,5.0,73,0.00,,,0.00,Wunderground v.1.15,2013-05-26 06:54:00,
2013-05-26 03:01:00,52.1,44.1,30.29,North,6,2.0,5.0,74,0.00,,,0.00,Wunderground v.1.15,2013-05-26 07:01:00,
2013-05-26 03:07:00,51.8,44.1,30.29,NNE,14,2.0,5.0,75,0.00,,,0.00,Wunderground v.1.15,2013-05-26 07:07:00,
2013-05-26 03:12:00,51.7,44.0,30.29,NNE,14,2.0,5.0,75,0.00,,,0.00,Wunderground v.1.15,2013-05-26 07:12:00,
2013-05-26 03:18:00,50.9,43.9,30.29,NNE,15,1.0,5.0,77,0.00,,,0.00,Wunderground v.1.15,2013-05-26 07:18:00,
2013-05-26 03:24:00,50.1,43.8,30.29,NNE,15,1.0,5.0,79,0.00,,,0.00,Wunderground v.1.15,2013-05-26 07:24:00,
2013-05-26 03:30:00,49.5,43.9,30.28,NNE,16,0.0,5.0,81,0.00,,,0.00,Wunderground v.1.15,2013-05-26 07:30:00,
2013-05-26 03:36:00,48.9,44.0,30.28,ENE,62,0.0,5.0,83,0.00,,,0.00,Wunderground v.1.15,2013-05-26 07:36:00,
2013-05-26 03:42:00,48.5,43.9,30.28,ENE,62,0.0,5.0,84,0.00,,,0.00,Wunderground v.1.15,2013-05-26 07:42:00,
2013-05-26 03:48:00,48.2,43.9,30.28,ENE,63,0.0,5.0,85,0.00,,,0.00,Wunderground v.1.15,2013-05-26 07:48:00,
2013-05-26 03:53:00,48.0,44.0,30.28,SW,225,1.0,5.0,86,0.00,,,0.00,Wunderground v.1.15,2013-05-26 07:53:00,
2013-05-26 03:59:00,47.7,44.0,30.28,SSW,211,1.0,5.0,87,0.00,,,0.00,Wunderground v.1.15,2013-05-26 07:59:00,
2013-05-26 04:05:00,47.5,43.5,30.28,SSW,194,1.0,5.0,86,0.00,,,0.00,Wunderground v.1.15,2013-05-26 08:05:00,
2013-05-26 04:11:00,47.3,43.0,30.28,SSW,195,0.0,5.0,85,0.00,,,0.00,Wunderground v.1.15,2013-05-26 08:11:00,
2013-05-26 04:17:00,46.9,42.9,30.28,SSW,195,0.0,5.0,86,0.00,,,0.00,Wunderground v.1.15,2013-05-26 08:17:00,
2013-05-26 04:23:00,46.6,43.2,30.28,SSW,194,0.0,5.0,88,0.00,,,0.00,Wunderground v.1.15,2013-05-26 08:23:00,
2013-05-26 04:29:00,46.4,43.3,30.28,ESE,120,0.0,5.0,89,0.00,,,0.00,Wunderground v.1.15,2013-05-26 08:29:00,
2013-05-26 04:34:00,46.2,43.1,30.28,ESE,120,0.0,5.0,89,0.00,,,0.00,Wunderground v.1.15,2013-05-26 08:34:00,
2013-05-26 04:40:00,46.1,43.3,30.28,ESE,120,0.0,5.0,90,0.00,,,0.00,Wunderground v.1.15,2013-05-26 08:40:00,
2013-05-26 04:46:00,46.2,43.4,30.28,ESE,120,0.0,5.0,90,0.00,,,0.00,Wunderground v.1.15,2013-05-26 08:46:00,
2013-05-26 04:52:00,46.1,43.3,30.28,ESE,120,0.0,5.0,90,0.00,,,0.00,Wunderground v.1.15,2013-05-26 08:52:00,
2013-05-26 04:58:00,46.0,43.2,30.28,ESE,120,0.0,5.0,90,0.00,,,0.00,Wunderground v.1.15,2013-05-26 08:58:00,
2013-05-26 05:04:00,45.9,43.4,30.28,ESE,120,0.0,5.0,91,0.00,,,0.00,Wunderground v.1.15,2013-05-26 09:04:00,
2013-05-26 05:10:00,46.4,44.2,30.28,East,91,0.0,5.0,92,0.00,,,0.00,Wunderground v.1.15,2013-05-26 09:10:00,
2013-05-26 05:15:00,47.1,44.3,30.28,NE,53,1.0,5.0,90,0.00,,,0.00,Wunderground v.1.15,2013-05-26 09:15:00,
2013-05-26 05:21:00,47.1,44.0,30.29,NE,52,1.0,1.0,89,0.00,,,0.00,Wunderground v.1.15,2013-05-26 09:21:00,
2013-05-26 05:27:00,47.0,43.9,30.29,NE,44,1.0,5.0,89,0.00,,,0.00,Wunderground v.1.15,2013-05-26 09:27:00,
2013-05-26 05:33:00,46.7,43.6,30.29,NE,44,0.0,5.0,89,0.00,,,0.00,Wunderground v.1.15,2013-05-26 09:33:00,
2013-05-26 05:39:00,46.6,44.1,30.29,ENE,61,0.0,5.0,91,0.00,,,0.00,Wunderground v.1.15,2013-05-26 09:39:00,
2013-05-26 05:45:00,47.2,44.7,30.29,NE,37,1.0,5.0,91,0.00,,,0.00,Wunderground v.1.15,2013-05-26 09:45:00,
2013-05-26 05:51:00,47.5,44.4,30.29,North,11,2.0,5.0,89,0.00,,,0.00,Wunderground v.1.15,2013-05-26 09:51:00,
2013-05-26 05:56:00,47.7,44.3,30.29,NNE,20,2.0,5.0,88,0.00,,,0.00,Wunderground v.1.15,2013-05-26 09:56:00,
2013-05-26 06:01:00,47.9,44.5,30.29,NNE,29,3.0,5.0,88,0.00,,,0.00,Wunderground v.1.15,2013-05-26 10:01:00,
2013-05-26 06:07:00,47.9,44.2,30.28,NNE,30,2.0,5.0,87,0.00,,,0.00,Wunderground v.1.15,2013-05-26 10:07:00,
2013-05-26 06:13:00,47.8,44.1,30.29,North,358,2.0,5.0,87,0.00,,,0.00,Wunderground v.1.15,2013-05-26 10:13:00,
2013-05-26 06:18:00,47.7,44.3,30.29,NE,37,2.0,5.0,88,0.00,,,0.00,Wunderground v.1.15,2013-05-26 10:18:00,
2013-05-26 06:24:00,47.6,44.2,30.28,East,82,2.0,5.0,88,0.00,,,0.00,Wunderground v.1.15,2013-05-26 10:24:00,
2013-05-26 06:30:00,47.5,44.1,30.29,NE,54,1.0,5.0,88,0.00,,,0.00,Wunderground v.1.15,2013-05-26 10:30:00,
2013-05-26 06:36:00,47.6,44.2,30.29,NNE,13,2.0,5.0,88,0.00,,,0.00,Wunderground v.1.15,2013-05-26 10:36:00,
2013-05-26 06:42:00,47.9,44.5,30.30,North,352,3.0,5.0,88,0.00,,,0.00,Wunderground v.1.15,2013-05-26 10:42:00,
2013-05-26 06:48:00,48.3,44.6,30.30,NNW,338,2.0,5.0,87,0.00,,,0.00,Wunderground v.1.15,2013-05-26 10:48:00,
2013-05-26 06:54:00,49.0,45.0,30.30,NE,47,1.0,5.0,86,0.00,,,0.00,Wunderground v.1.15,2013-05-26 10:54:00,
2013-05-26 07:01:00,49.9,44.6,30.30,ENE,58,1.0,5.0,82,0.00,,,0.00,Wunderground v.1.15,2013-05-26 11:01:00,
2013-05-26 07:07:00,50.6,44.0,30.30,NNE,32,1.0,5.0,78,0.00,,,0.00,Wunderground v.1.15,2013-05-26 11:07:00,
2013-05-26 07:12:00,51.1,43.8,30.30,NE,47,2.0,3.0,76,0.00,,,0.00,Wunderground v.1.15,2013-05-26 11:12:00,
2013-05-26 07:18:00,51.2,43.2,30.30,NE,37,2.0,5.0,74,0.00,,,0.00,Wunderground v.1.15,2013-05-26 11:18:00,
2013-05-26 07:24:00,50.9,43.3,30.29,NNE,19,2.0,5.0,75,0.00,,,0.00,Wunderground v.1.15,2013-05-26 11:24:00,
2013-05-26 07:30:00,50.9,42.9,30.29,NNE,33,3.0,5.0,74,0.00,,,0.00,Wunderground v.1.15,2013-05-26 11:30:00,
2013-05-26 07:36:00,50.8,42.8,30.30,ENE,76,3.0,5.0,74,0.00,,,0.00,Wunderground v.1.15,2013-05-26 11:36:00,
2013-05-26 07:42:00,50.8,42.5,30.30,NE,39,2.0,5.0,73,0.00,,,0.00,Wunderground v.1.15,2013-05-26 11:42:00,
2013-05-26 07:48:00,50.9,42.9,30.30,NW,304,2.0,5.0,74,0.00,,,0.00,Wunderground v.1.15,2013-05-26 11:48:00,
2013-05-26 07:54:00,51.1,42.7,30.30,ESE,111,2.0,5.0,73,0.00,,,0.00,Wunderground v.1.15,2013-05-26 11:54:00,
2013-05-26 07:59:00,51.1,42.4,30.30,NE,39,2.0,9.0,72,0.00,,,0.00,Wunderground v.1.15,2013-05-26 11:59:00,
2013-05-26 08:05:00,51.2,42.5,30.30,SSW,205,4.0,5.0,72,0.00,,,0.00,Wunderground v.1.15,2013-05-26 12:05:00,
2013-05-26 08:11:00,51.6,43.2,30.30,South,180,3.0,3.0,73,0.00,,,0.00,Wunderground v.1.15,2013-05-26 12:11:00,
2013-05-26 08:17:00,51.8,43.1,30.30,East,91,3.0,6.0,72,0.00,,,0.00,Wunderground v.1.15,2013-05-26 12:17:00,
2013-05-26 08:23:00,52.1,43.3,30.31,ESE,109,4.0,5.0,72,0.00,,,0.00,Wunderground v.1.15,2013-05-26 12:23:00,
2013-05-26 08:29:00,52.5,43.4,30.31,SE,128,4.0,6.0,71,0.00,,,0.00,Wunderground v.1.15,2013-05-26 12:29:00,
2013-05-26 08:35:00,52.8,43.7,30.31,WSW,240,4.0,6.0,71,0.00,,,0.00,Wunderground v.1.15,2013-05-26 12:35:00,
2013-05-26 08:40:00,53.3,43.8,30.31,SE,139,4.0,7.0,70,0.00,,,0.00,Wunderground v.1.15,2013-05-26 12:40:00,
2013-05-26 08:46:00,53.8,43.9,30.31,ESE,118,5.0,6.0,69,0.00,,,0.00,Wunderground v.1.15,2013-05-26 12:46:00,
2013-05-26 08:52:00,54.5,44.9,30.31,ESE,109,4.0,5.0,70,0.00,,,0.00,Wunderground v.1.15,2013-05-26 12:52:00,
2013-05-26 08:58:00,55.4,44.6,30.32,SE,136,4.0,9.0,67,0.00,,,0.00,Wunderground v.1.15,2013-05-26 12:58:00,
2013-05-26 09:04:00,55.9,45.5,30.32,WNW,285,4.0,6.0,68,0.00,,,0.00,Wunderground v.1.15,2013-05-26 13:04:00,
2013-05-26 09:10:00,56.5,45.3,30.32,SE,139,4.0,8.0,66,0.00,,,0.00,Wunderground v.1.15,2013-05-26 13:10:00,
2013-05-26 09:16:00,56.9,45.3,30.33,SE,130,4.0,6.0,65,0.00,,,0.00,Wunderground v.1.15,2013-05-26 13:16:00,
2013-05-26 09:21:00,57.1,45.0,30.33,ESE,107,4.0,8.0,64,0.00,,,0.00,Wunderground v.1.15,2013-05-26 13:21:00,
2013-05-26 09:27:00,57.2,45.1,30.33,ESE,120,5.0,8.0,64,0.00,,,0.00,Wunderground v.1.15,2013-05-26 13:27:00,
2013-05-26 09:33:00,57.7,45.6,30.33,SSE,156,5.0,5.0,64,0.00,,,0.00,Wunderground v.1.15,2013-05-26 13:33:00,
2013-05-26 09:39:00,58.4,45.8,30.33,SE,128,3.0,5.0,63,0.00,,,0.00,Wunderground v.1.15,2013-05-26 13:39:00,
2013-05-26 09:45:00,58.8,45.4,30.33,ESE,117,4.0,6.0,61,0.00,,,0.00,Wunderground v.1.15,2013-05-26 13:45:00,
2013-05-26 09:51:00,59.3,46.7,30.33,South,169,3.0,3.0,63,0.00,,,0.00,Wunderground v.1.15,2013-05-26 13:51:00,
2013-05-26 09:57:00,60.3,46.4,30.33,NE,53,3.0,5.0,60,0.00,,,0.00,Wunderground v.1.15,2013-05-26 13:57:00,
2013-05-26 10:02:00,60.5,46.1,30.33,SE,126,3.0,5.0,59,0.00,,,0.00,Wunderground v.1.15,2013-05-26 14:02:00,
2013-05-26 10:08:00,61.0,45.7,30.33,ENE,61,3.0,6.0,57,0.00,,,0.00,Wunderground v.1.15,2013-05-26 14:08:00,
2013-05-26 10:14:00,61.5,46.1,30.33,ESE,102,3.0,5.0,57,0.00,,,0.00,Wunderground v.1.15,2013-05-26 14:14:00,
2013-05-26 10:20:00,61.8,45.9,30.32,ESE,120,4.0,7.0,56,0.00,,,0.00,Wunderground v.1.15,2013-05-26 14:20:00,
2013-05-26 10:26:00,61.5,45.2,30.32,South,170,5.0,10.0,55,0.00,,,0.00,Wunderground v.1.15,2013-05-26 14:26:00,
2013-05-26 10:32:00,61.9,46.0,30.32,East,86,6.0,6.0,56,0.00,,,0.00,Wunderground v.1.15,2013-05-26 14:32:00,
2013-05-26 10:38:00,62.2,45.8,30.32,SE,132,5.0,7.0,55,0.00,,,0.00,Wunderground v.1.15,2013-05-26 14:38:00,
2013-05-26 10:44:00,62.5,46.6,30.32,ESE,104,5.0,7.0,56,0.00,,,0.00,Wunderground v.1.15,2013-05-26 14:44:00,
2013-05-26 10:50:00,62.9,45.5,30.32,SE,135,5.0,10.0,53,0.00,,,0.00,Wunderground v.1.15,2013-05-26 14:50:00,
2013-05-26 10:56:00,62.9,46.5,30.32,NNE,20,4.0,5.0,55,0.00,,,0.00,Wunderground v.1.15,2013-05-26 14:56:00,
2013-05-26 11:01:00,63.4,46.5,30.32,SE,142,4.0,6.0,54,0.00,,,0.00,Wunderground v.1.15,2013-05-26 15:01:00,
2013-05-26 11:07:00,64.1,46.1,30.32,SSE,158,4.0,6.0,52,0.00,,,0.00,Wunderground v.1.15,2013-05-26 15:07:00,
2013-05-26 11:12:00,64.5,47.5,30.32,SE,130,3.0,6.0,54,0.00,,,0.00,Wunderground v.1.15,2013-05-26 15:12:00,
2013-05-26 11:18:00,64.2,46.2,30.32,North,11,4.0,8.0,52,0.00,,,0.00,Wunderground v.1.15,2013-05-26 15:18:00,
2013-05-26 11:24:00,64.0,46.0,30.32,South,189,5.0,6.0,52,0.00,,,0.00,Wunderground v.1.15,2013-05-26 15:24:00,
2013-05-26 11:30:00,64.5,47.0,30.31,SE,145,5.0,8.0,53,0.00,,,0.00,Wunderground v.1.15,2013-05-26 15:30:00,
2013-05-26 11:36:00,65.3,46.2,30.32,NNE,30,4.0,8.0,50,0.00,,,0.00,Wunderground v.1.15,2013-05-26 15:36:00,
2013-05-26 11:42:00,65.7,46.5,30.31,ENE,73,3.0,5.0,50,0.00,,,0.00,Wunderground v.1.15,2013-05-26 15:42:00,
2013-05-26 11:47:00,66.1,46.9,30.31,SE,142,3.0,8.0,50,0.00,,,0.00,Wunderground v.1.15,2013-05-26 15:47:00,
2013-05-26 11:53:00,67.2,45.7,30.31,East,96,3.0,5.0,46,0.00,,,0.00,Wunderground v.1.15,2013-05-26 15:53:00,
2013-05-26 11:59:00,67.8,46.3,30.31,SSE,158,3.0,6.0,46,0.00,,,0.00,Wunderground v.1.15,2013-05-26 15:59:00,
2013-05-26 12:05:00,67.7,45.6,30.30,SSE,148,4.0,10.0,45,0.00,,,0.00,Wunderground v.1.15,2013-05-26 16:05:00,
2013-05-26 12:11:00,67.3,45.2,30.31,SE,139,5.0,5.0,45,0.00,,,0.00,Wunderground v.1.15,2013-05-26 16:11:00,
2013-05-26 12:17:00,67.2,43.9,30.31,SSE,150,5.0,11.0,43,0.00,,,0.00,Wunderground v.1.15,2013-05-26 16:17:00,
2013-05-26 12:23:00,67.1,44.4,30.31,SSW,210,7.0,8.0,44,0.00,,,0.00,Wunderground v.1.15,2013-05-26 16:23:00,
2013-05-26 12:28:00,67.8,45.1,30.31,SE,129,5.0,13.0,44,0.00,,,0.00,Wunderground v.1.15,2013-05-26 16:28:00,
2013-05-26 12:34:00,67.4,43.5,30.31,SE,127,6.0,7.0,42,0.00,,,0.00,Wunderground v.1.15,2013-05-26 16:34:00,
2013-05-26 12:40:00,67.4,42.9,30.31,SE,131,6.0,7.0,41,0.00,,,0.00,Wunderground v.1.15,2013-05-26 16:40:00,
2013-05-26 12:46:00,66.8,43.0,30.30,SSE,148,5.0,13.0,42,0.00,,,0.00,Wunderground v.1.15,2013-05-26 16:46:00,
2013-05-26 12:52:00,66.8,43.0,30.30,North,4,5.0,5.0,42,0.00,,,0.00,Wunderground v.1.15,2013-05-26 16:52:00,
2013-05-26 12:58:00,66.6,42.8,30.30,NW,316,3.0,10.0,42,0.00,,,0.00,Wunderground v.1.15,2013-05-26 16:58:00,
2013-05-26 13:04:00,66.5,42.7,30.29,SSE,150,4.0,6.0,42,0.00,,,0.00,Wunderground v.1.15,2013-05-26 17:04:00,
2013-05-26 13:09:00,66.7,41.6,30.29,NNE,33,4.0,8.0,40,0.00,,,0.00,Wunderground v.1.15,2013-05-26 17:09:00,
2013-05-26 13:15:00,66.5,42.1,30.30,ESE,102,5.0,11.0,41,0.00,,,0.00,Wunderground v.1.15,2013-05-26 17:15:00,
2013-05-26 13:21:00,67.1,43.2,30.29,ESE,117,3.0,3.0,42,0.00,,,0.00,Wunderground v.1.15,2013-05-26 17:21:00,
2013-05-26 13:27:00,67.1,43.8,30.30,West,260,3.0,5.0,43,0.00,,,0.00,Wunderground v.1.15,2013-05-26 17:27:00,
2013-05-26 13:33:00,67.0,43.1,30.29,SW,228,4.0,8.0,42,0.00,,,0.00,Wunderground v.1.15,2013-05-26 17:33:00,
2013-05-26 13:39:00,67.0,43.1,30.30,SSE,163,4.0,8.0,42,0.00,,,0.00,Wunderground v.1.15,2013-05-26 17:39:00,
2013-05-26 13:45:00,66.9,43.0,30.29,ESE,118,4.0,6.0,42,0.00,,,0.00,Wunderground v.1.15,2013-05-26 17:45:00,
2013-05-26 13:50:00,67.0,43.8,30.28,NE,46,3.0,6.0,43,0.00,,,0.00,Wunderground v.1.15,2013-05-26 17:50:00,
2013-05-26 13:56:00,66.9,43.7,30.28,ENE,64,4.0,6.0,43,0.00,,,0.00,Wunderground v.1.15,2013-05-26 17:56:00,
2013-05-26 14:01:00,66.9,43.7,30.28,NE,56,5.0,6.0,43,0.00,,,0.00,Wunderground v.1.15,2013-05-26 18:01:00,
2013-05-26 14:07:00,66.9,43.7,30.28,WSW,257,5.0,6.0,43,0.00,,,0.00,Wunderground v.1.15,2013-05-26 18:07:00,
2013-05-26 14:13:00,67.1,43.8,30.28,NE,42,4.0,6.0,43,0.00,,,0.00,Wunderground v.1.15,2013-05-26 18:13:00,
2013-05-26 14:18:00,67.0,43.8,30.27,ESE,117,4.0,6.0,43,0.00,,,0.00,Wunderground v.1.15,2013-05-26 18:18:00,
2013-05-26 14:24:00,67.3,44.0,30.28,SSE,158,6.0,9.0,43,0.00,,,0.00,Wunderground v.1.15,2013-05-26 18:24:00,
2013-05-26 14:30:00,67.9,44.0,30.28,East,83,4.0,9.0,42,0.00,,,0.00,Wunderground v.1.15,2013-05-26 18:30:00,
2013-05-26 14:36:00,67.6,44.3,30.28,SE,143,4.0,8.0,43,0.00,,,0.00,Wunderground v.1.15,2013-05-26 18:36:00,
2013-05-26 14:42:00,68.1,44.1,30.28,ESE,121,3.0,6.0,42,0.00,,,0.00,Wunderground v.1.15,2013-05-26 18:42:00,
2013-05-26 14:48:00,68.5,45.7,30.28,NE,46,2.0,6.0,44,0.00,,,0.00,Wunderground v.1.15,2013-05-26 18:48:00,
2013-05-26 14:54:00,68.4,45.0,30.27,NNE,23,3.0,7.0,43,0.00,,,0.00,Wunderground v.1.15,2013-05-26 18:54:00,
2013-05-26 15:01:00,67.7,45.0,30.27,SE,142,5.0,5.0,44,0.00,,,0.00,Wunderground v.1.15,2013-05-26 19:01:00,
2013-05-26 15:07:00,68.3,44.9,30.27,NE,39,3.0,6.0,43,0.00,,,0.00,Wunderground v.1.15,2013-05-26 19:07:00,
2013-05-26 15:13:00,68.1,45.4,30.27,NE,54,4.0,6.0,44,0.00,,,0.00,Wunderground v.1.15,2013-05-26 19:13:00,
2013-05-26 15:19:00,69.5,45.4,30.27,SE,124,4.0,6.0,42,0.00,,,0.00,Wunderground v.1.15,2013-05-26 19:19:00,
2013-05-26 15:25:00,69.7,44.9,30.26,ESE,112,4.0,8.0,41,0.00,,,0.00,Wunderground v.1.15,2013-05-26 19:25:00,
2013-05-26 15:31:00,70.4,46.2,30.26,SE,139,4.0,5.0,42,0.00,,,0.00,Wunderground v.1.15,2013-05-26 19:31:00,
2013-05-26 15:37:00,70.5,45.7,30.26,ESE,114,4.0,7.0,41,0.00,,,0.00,Wunderground v.1.15,2013-05-26 19:37:00,
2013-05-26 15:42:00,70.7,45.8,30.26,NE,34,4.0,5.0,41,0.00,,,0.00,Wunderground v.1.15,2013-05-26 19:42:00,
2013-05-26 15:48:00,69.6,44.8,30.26,NNE,14,4.0,8.0,41,0.00,,,0.00,Wunderground v.1.15,2013-05-26 19:48:00,
2013-05-26 15:54:00,69.3,45.8,30.26,SE,127,5.0,7.0,43,0.00,,,0.00,Wunderground v.1.15,2013-05-26 19:54:00,
2013-05-26 16:01:00,69.6,44.8,30.26,SSE,161,3.0,7.0,41,0.00,,,0.00,Wunderground v.1.15,2013-05-26 20:01:00,
2013-05-26 16:07:00,69.4,44.7,30.25,SE,133,5.0,9.0,41,0.00,,,0.00,Wunderground v.1.15,2013-05-26 20:07:00,
2013-05-26 16:13:00,69.2,45.1,30.25,North,355,6.0,7.0,42,0.00,,,0.00,Wunderground v.1.15,2013-05-26 20:13:00,
2013-05-26 16:19:00,69.4,46.5,30.25,East,87,5.0,7.0,44,0.00,,,0.00,Wunderground v.1.15,2013-05-26 20:19:00,
2013-05-26 16:24:00,69.5,45.4,30.25,SE,127,4.0,7.0,42,0.00,,,0.00,Wunderground v.1.15,2013-05-26 20:24:00,
2013-05-26 16:30:00,69.5,45.4,30.24,NNW,334,4.0,7.0,42,0.00,,,0.00,Wunderground v.1.15,2013-05-26 20:30:00,
2013-05-26 16:36:00,69.5,46.0,30.24,SE,129,5.0,9.0,43,0.00,,,0.00,Wunderground v.1.15,2013-05-26 20:36:00,
2013-05-26 16:42:00,69.1,45.0,30.24,ESE,110,6.0,6.0,42,0.00,,,0.00,Wunderground v.1.15,2013-05-26 20:42:00,
2013-05-26 16:48:00,69.1,45.7,30.24,SE,128,5.0,7.0,43,0.00,,,0.00,Wunderground v.1.15,2013-05-26 20:48:00,
2013-05-26 16:54:00,69.2,45.7,30.23,SE,135,4.0,6.0,43,0.00,,,0.00,Wunderground v.1.15,2013-05-26 20:54:00,
2013-05-26 17:01:00,69.3,45.2,30.23,SE,128,5.0,9.0,42,0.00,,,0.00,Wunderground v.1.15,2013-05-26 21:01:00,
2013-05-26 17:07:00,69.1,46.3,30.23,NE,38,6.0,9.0,44,0.00,,,0.00,Wunderground v.1.15,2013-05-26 21:07:00,
2013-05-26 17:12:00,69.2,45.7,30.22,ENE,58,5.0,7.0,43,0.00,,,0.00,Wunderground v.1.15,2013-05-26 21:12:00,
2013-05-26 17:18:00,69.2,45.7,30.22,SE,129,5.0,7.0,43,0.00,,,0.00,Wunderground v.1.15,2013-05-26 21:18:00,
2013-05-26 17:24:00,69.5,45.4,30.22,East,98,5.0,6.0,42,0.00,,,0.00,Wunderground v.1.15,2013-05-26 21:24:00,
2013-05-26 17:30:00,69.1,45.0,30.22,ESE,121,6.0,10.0,42,0.00,,,0.00,Wunderground v.1.15,2013-05-26 21:30:00,
2013-05-26 17:36:00,69.0,45.6,30.22,SE,131,6.0,7.0,43,0.00,,,0.00,Wunderground v.1.15,2013-05-26 21:36:00,
2013-05-26 17:42:00,69.3,46.4,30.22,East,83,3.0,4.0,44,0.00,,,0.00,Wunderground v.1.15,2013-05-26 21:42:00,
2013-05-26 17:48:00,69.1,45.7,30.22,SE,129,4.0,15.0,43,0.00,,,0.00,Wunderground v.1.15,2013-05-26 21:48:00,
2013-05-26 17:53:00,69.0,44.9,30.22,SE,145,5.0,7.0,42,0.00,,,0.00,Wunderground v.1.15,2013-05-26 21:53:00,
2013-05-26 17:59:00,68.7,44.7,30.22,SE,131,6.0,8.0,42,0.00,,,0.00,Wunderground v.1.15,2013-05-26 21:59:00,
2013-05-26 18:05:00,68.5,45.1,30.21,SE,127,6.0,7.0,43,0.00,,,0.00,Wunderground v.1.15,2013-05-26 22:05:00,
2013-05-26 18:11:00,68.5,45.7,30.21,SE,131,5.0,5.0,44,0.00,,,0.00,Wunderground v.1.15,2013-05-26 22:11:00,
2013-05-26 18:17:00,68.6,45.2,30.21,ESE,118,4.0,9.0,43,0.00,,,0.00,Wunderground v.1.15,2013-05-26 22:17:00,
2013-05-26 18:23:00,68.5,45.1,30.21,South,187,4.0,6.0,43,0.00,,,0.00,Wunderground v.1.15,2013-05-26 22:23:00,
2013-05-26 18:28:00,68.4,44.4,30.21,SE,141,5.0,8.0,42,0.00,,,0.00,Wunderground v.1.15,2013-05-26 22:28:00,
2013-05-26 18:34:00,68.2,44.8,30.20,East,96,4.0,5.0,43,0.00,,,0.00,Wunderground v.1.15,2013-05-26 22:34:00,
2013-05-26 18:40:00,68.1,45.4,30.21,East,79,3.0,5.0,44,0.00,,,0.00,Wunderground v.1.15,2013-05-26 22:40:00,
2013-05-26 18:46:00,68.0,45.3,30.21,SSE,148,3.0,6.0,44,0.00,,,0.00,Wunderground v.1.15,2013-05-26 22:46:00,
2013-05-26 18:52:00,67.8,43.9,30.20,SE,128,3.0,5.0,42,0.00,,,0.00,Wunderground v.1.15,2013-05-26 22:52:00,
2013-05-26 18:58:00,67.5,44.2,30.20,ESE,109,4.0,6.0,43,0.00,,,0.00,Wunderground v.1.15,2013-05-26 22:58:00,
2013-05-26 19:04:00,67.3,44.0,30.19,SSE,148,3.0,6.0,43,0.00,,,0.00,Wunderground v.1.15,2013-05-26 23:04:00,
2013-05-26 19:09:00,67.1,43.8,30.19,SSE,156,4.0,7.0,43,0.00,,,0.00,Wunderground v.1.15,2013-05-26 23:09:00,
2013-05-26 19:15:00,67.0,44.4,30.19,SE,138,5.0,6.0,44,0.00,,,0.00,Wunderground v.1.15,2013-05-26 23:15:00,
2013-05-26 19:21:00,66.9,44.3,30.19,SE,128,3.0,5.0,44,0.00,,,0.00,Wunderground v.1.15,2013-05-26 23:21:00,
2013-05-26 19:27:00,66.9,43.7,30.19,SE,140,3.0,6.0,43,0.00,,,0.00,Wunderground v.1.15,2013-05-26 23:27:00,
2013-05-26 19:33:00,66.9,43.7,30.19,SE,130,3.0,5.0,43,0.00,,,0.00,Wunderground v.1.15,2013-05-26 23:33:00,
2013-05-26 19:39:00,66.9,44.3,30.20,ESE,120,3.0,5.0,44,0.00,,,0.00,Wunderground v.1.15,2013-05-26 23:39:00,
2013-05-26 19:45:00,66.8,44.8,30.20,SSW,200,3.0,5.0,45,0.00,,,0.00,Wunderground v.1.15,2013-05-26 23:45:00,
2013-05-26 19:50:00,66.3,47.6,30.20,South,170,4.0,7.0,51,0.00,,,0.00,Wunderground v.1.15,2013-05-26 23:50:00,
2013-05-26 19:56:00,65.7,48.6,30.20,South,186,5.0,8.0,54,0.00,,,0.00,Wunderground v.1.15,2013-05-26 23:56:00,
2013-05-26 20:01:00,65.3,47.7,30.20,SSE,160,6.0,6.0,53,0.00,,,0.00,Wunderground v.1.15,2013-05-27 00:01:00,
2013-05-26 20:07:00,65.0,47.4,30.19,South,169,6.0,6.0,53,0.00,,,0.00,Wunderground v.1.15,2013-05-27 00:07:00,
2013-05-26 20:13:00,64.8,47.8,30.19,SE,141,5.0,7.0,54,0.00,,,0.00,Wunderground v.1.15,2013-05-27 00:13:00,
2013-05-26 20:19:00,64.6,47.6,30.19,South,176,5.0,7.0,54,0.00,,,0.00,Wunderground v.1.15,2013-05-27 00:19:00,
2013-05-26 20:24:00,64.5,48.0,30.19,SE,124,4.0,6.0,55,0.00,,,0.00,Wunderground v.1.15,2013-05-27 00:24:00,
2013-05-26 20:30:00,64.4,47.4,30.19,SE,138,5.0,7.0,54,0.00,,,0.00,Wunderground v.1.15,2013-05-27 00:30:00,
2013-05-26 20:36:00,64.4,47.4,30.18,ESE,118,5.0,5.0,54,0.00,,,0.00,Wunderground v.1.15,2013-05-27 00:36:00,
2013-05-26 20:42:00,64.2,47.2,30.19,South,188,4.0,5.0,54,0.00,,,0.00,Wunderground v.1.15,2013-05-27 00:42:00,
2013-05-26 20:48:00,64.1,47.1,30.19,SSE,166,4.0,5.0,54,0.00,,,0.00,Wunderground v.1.15,2013-05-27 00:48:00,
2013-05-26 20:54:00,64.0,47.0,30.19,SE,143,4.0,5.0,54,0.00,,,0.00,Wunderground v.1.15,2013-05-27 00:54:00,
2013-05-26 21:01:00,64.0,47.0,30.19,SSE,153,3.0,3.0,54,0.00,,,0.00,Wunderground v.1.15,2013-05-27 01:01:00,
2013-05-26 21:07:00,63.9,46.9,30.19,SE,131,3.0,5.0,54,0.00,,,0.00,Wunderground v.1.15,2013-05-27 01:07:00,
2013-05-26 21:12:00,63.9,46.9,30.19,South,179,3.0,5.0,54,0.00,,,0.00,Wunderground v.1.15,2013-05-27 01:12:00,
2013-05-26 21:18:00,63.8,46.8,30.20,SSE,155,2.0,5.0,54,0.00,,,0.00,Wunderground v.1.15,2013-05-27 01:18:00,
2013-05-26 21:24:00,63.7,47.2,30.20,SE,131,2.0,5.0,55,0.00,,,0.00,Wunderground v.1.15,2013-05-27 01:24:00,
2013-05-26 21:30:00,63.6,47.1,30.19,SE,131,1.0,5.0,55,0.00,,,0.00,Wunderground v.1.15,2013-05-27 01:30:00,
2013-05-26 21:36:00,63.5,47.0,30.19,SE,144,2.0,5.0,55,0.00,,,0.00,Wunderground v.1.15,2013-05-27 01:36:00,
2013-05-26 21:42:00,63.4,47.4,30.20,SSW,194,2.0,5.0,56,0.00,,,0.00,Wunderground v.1.15,2013-05-27 01:42:00,
2013-05-26 21:48:00,63.2,47.7,30.21,SW,235,2.0,5.0,57,0.00,,,0.00,Wunderground v.1.15,2013-05-27 01:48:00,
2013-05-26 21:53:00,63.1,48.1,30.21,SW,236,0.0,5.0,58,0.00,,,0.00,Wunderground v.1.15,2013-05-27 01:53:00,
2013-05-26 21:59:00,63.0,48.0,30.21,SW,228,0.0,5.0,58,0.00,,,0.00,Wunderground v.1.15,2013-05-27 01:59:00,
2013-05-26 22:05:00,62.9,47.9,30.22,WNW,288,1.0,5.0,58,0.00,,,0.00,Wunderground v.1.15,2013-05-27 02:05:00,
2013-05-26 22:11:00,62.8,48.3,30.22,WNW,300,1.0,1.0,59,0.00,,,0.00,Wunderground v.1.15,2013-05-27 02:11:00,
2013-05-26 22:17:00,62.7,49.5,30.22,WNW,301,1.0,5.0,62,0.00,,,0.00,Wunderground v.1.15,2013-05-27 02:17:00,
2013-05-26 22:23:00,62.3,49.1,30.22,WNW,301,0.0,5.0,62,0.00,,,0.00,Wunderground v.1.15,2013-05-27 02:23:00,
2013-05-26 22:29:00,62.3,50.4,30.22,WNW,300,0.0,5.0,65,0.00,,,0.00,Wunderground v.1.15,2013-05-27 02:29:00,
2013-05-26 22:34:00,62.1,49.4,30.22,WNW,301,0.0,5.0,63,0.00,,,0.00,Wunderground v.1.15,2013-05-27 02:34:00,
2013-05-26 22:40:00,62.0,49.3,30.22,SSE,155,0.0,5.0,63,0.00,,,0.00,Wunderground v.1.15,2013-05-27 02:40:00,
2013-05-26 22:46:00,61.8,50.3,30.22,SE,138,0.0,5.0,66,0.00,,,0.00,Wunderground v.1.15,2013-05-27 02:46:00,
2013-05-26 22:52:00,61.5,50.4,30.21,SSW,204,1.0,5.0,67,0.00,,,0.00,Wunderground v.1.15,2013-05-27 02:52:00,
2013-05-26 22:58:00,61.3,50.2,30.21,SE,128,1.0,5.0,67,0.00,,,0.00,Wunderground v.1.15,2013-05-27 02:58:00,
2013-05-26 23:04:00,61.0,50.4,30.21,SE,131,1.0,5.0,68,0.00,,,0.00,Wunderground v.1.15,2013-05-27 03:04:00,
2013-05-26 23:10:00,60.9,50.3,30.21,ESE,120,1.0,5.0,68,0.00,,,0.00,Wunderground v.1.15,2013-05-27 03:10:00,
2013-05-26 23:15:00,60.6,50.4,30.20,SE,139,1.0,5.0,69,0.00,,,0.00,Wunderground v.1.15,2013-05-27 03:15:00,
2013-05-26 23:21:00,60.1,50.7,30.20,SE,136,1.0,1.0,71,0.00,,,0.00,Wunderground v.1.15,2013-05-27 03:21:00,
2013-05-26 23:27:00,59.8,50.4,30.21,SE,131,0.0,5.0,71,0.00,,,0.00,Wunderground v.1.15,2013-05-27 03:27:00,
2013-05-26 23:33:00,59.7,51.4,30.20,SE,131,0.0,5.0,74,0.00,,,0.00,Wunderground v.1.15,2013-05-27 03:33:00,
2013-05-26 23:39:00,59.5,50.5,30.21,East,101,0.0,5.0,72,0.00,,,0.00,Wunderground v.1.15,2013-05-27 03:39:00,
2013-05-26 23:45:00,59.4,50.7,30.20,ESE,115,0.0,5.0,73,0.00,,,0.00,Wunderground v.1.15,2013-05-27 03:45:00,
2013-05-26 23:51:00,59.4,50.0,30.20,ESE,115,0.0,5.0,71,0.00,,,0.00,Wunderground v.1.15,2013-05-27 03:51:00,
2013-05-26 23:56:00,59.5,50.1,30.20,NE,34,1.0,5.0,71,0.00,,,0.00,Wunderground v.1.15,2013-05-27 03:56:00,